FW7828 Weather Reports


time (UTC)temp
C
wind
direction
speed
KPH
gust
KPH
rain 1hr
cm
rain 24hr
cm
rain mn
cm
humidity
%
barometer
mb
20260904000355 28 227 3.2 4.8 0.00 0.00 0.00 91 1013.4
20260903235855 28 357 0.0 0.0 0.00 0.00 0.00 91 1013.4
20260903235351 28 357 0.0 0.0 0.00 0.00 0.00 91 1013.2
20260903234850 28 354 0.0 0.0 0.00 0.00 0.00 91 1013.1
20260903234346 28 354 0.0 0.0 0.00 0.00 0.00 91 1013.0
20260903233842 28 354 0.0 0.0 0.00 0.00 0.00 90 1013.1
20260903233338 28 354 0.0 0.0 0.00 0.00 0.00 90 1012.9
20260903232837 28 354 0.0 0.0 0.00 0.00 0.00 90 1012.8
20260903232333 28 354 0.0 0.0 0.00 0.00 0.00 90 1012.9
20260903231832 28 356 0.0 0.0 0.00 0.00 0.00 90 1013.0
20260903231328 28 356 0.0 0.0 0.00 0.00 0.00 89 1012.9
20260903230823 28 355 0.0 0.0 0.00 0.00 0.00 89 1013.0
20260903230318 28 356 0.0 0.0 0.00 0.00 0.00 89 1013.1
20260903225814 29 354 0.0 0.0 0.00 0.00 0.00 88 1013.1
20260903225310 29 354 0.0 0.0 0.00 0.00 0.00 88 1013.0
20260903224807 29 353 0.0 0.0 0.00 0.00 0.00 88 1013.0
20260903224302 29 3 0.0 0.0 0.00 0.00 0.00 88 1012.8
20260903223758 30 355 0.0 0.0 0.00 0.00 0.00 88 1013.0
20260903223256 30 356 0.0 0.0 0.00 0.00 0.00 88 1013.0
20260903222751 30 359 0.0 1.6 0.00 0.00 0.00 87 1012.9
20260903222250 30 341 0.0 0.0 0.00 0.00 0.00 87 1012.9
20260903221745 30 2 0.0 0.0 0.00 0.00 0.00 87 1013.0
20260903221244 30 353 0.0 0.0 0.00 0.00 0.00 86 1012.9
20260903220742 30 346 0.0 0.0 0.00 0.00 0.00 86 1013.2
20260903220237 31 351 0.0 0.0 0.00 0.00 0.00 85 1013.1
20260903215736 31 349 0.0 0.0 0.00 0.00 0.00 85 1013.1
20260903215232 31 346 0.0 0.0 0.00 0.00 0.00 84 1013.1
20260903214729 31 328 0.0 0.0 0.00 0.00 0.00 84 1013.2
20260903214226 32 358 0.0 0.0 0.00 0.00 0.00 84 1013.1
20260903213720 32 355 0.0 0.0 0.00 0.00 0.00 82 1013.2
20260903213216 32 9 0.0 0.0 0.00 0.00 0.00 80 1013.2
20260903212712 32 318 0.0 1.6 0.00 0.00 0.00 80 1013.3
20260903212208 32 6 0.0 0.0 0.00 0.00 0.00 79 1013.2
20260903211707 32 306 0.0 0.0 0.00 0.00 0.00 79 1013.2
20260903211204 32 323 0.0 0.0 0.00 0.00 0.00 79 1013.3
20260903210700 33 9 0.0 0.0 0.00 0.00 0.00 77 1013.4
20260903210155 33 341 0.0 0.0 0.00 0.00 0.00 77 1013.3
20260903205655 33 8 0.0 0.0 0.00 0.00 0.00 76 1013.2
20260903205153 33 330 0.0 1.6 0.00 0.00 0.00 74 1013.3
20260903204649 34 244 0.0 0.0 0.00 0.00 0.00 71 1013.5
20260903204146 34 16 0.0 0.0 0.00 0.00 0.00 71 1013.3
20260903203641 35 43 0.0 0.0 0.00 0.00 0.00 70 1013.6
20260903203136 35 295 0.0 0.0 0.00 0.00 0.00 66 1013.5
20260903202631 36 216 0.0 1.6 0.00 0.00 0.00 63 1013.6
20260903202126 36 283 0.0 0.0 0.00 0.00 0.00 62 1013.6
20260903201620 36 272 1.6 1.6 0.00 0.00 0.00 61 1013.9
20260903201120 36 350 0.0 0.0 0.00 0.00 0.00 63 1014.0
20260903200615 36 285 0.0 0.0 0.00 0.00 0.00 62 1013.9
20260903200110 36 200 1.6 3.2 0.00 0.00 0.00 63 1014.3
20260903195606 35 257 0.0 0.0 0.00 0.00 0.00 63 1014.1
20260903195101 35 304 1.6 1.6 0.00 0.00 0.00 63 1014.0
20260903194556 35 107 4.8 4.8 0.00 0.00 0.00 64 1014.1
20260903194051 35 109 0.0 1.6 0.00 0.00 0.00 69 1014.0
20260903193548 35 167 1.6 3.2 0.00 0.00 0.00 67 1014.2
20260903193043 35 191 1.6 3.2 0.00 0.00 0.00 68 1014.2
20260903192539 35 225 0.0 1.6 0.00 0.00 0.00 67 1014.4
20260903192034 35 179 1.6 3.2 0.00 0.00 0.00 67 1014.3
20260903191531 35 176 3.2 3.2 0.00 0.00 0.00 65 1014.3
20260903191025 35 212 3.2 4.8 0.00 0.00 0.00 66 1014.3
20260903190524 35 144 4.8 8.0 0.00 0.00 0.00 66 1014.5
20260903190024 35 220 0.0 0.0 0.00 0.00 0.00 68 1014.4
20260903185520 34 342 0.0 0.0 0.00 0.00 0.00 66 1014.6
20260903185015 35 132 4.8 4.8 0.00 0.00 0.00 64 1014.6
20260903184512 36 275 0.0 0.0 0.00 0.00 0.00 64 1014.6
20260903184011 35 226 0.0 1.6 0.00 0.00 0.00 64 1014.5
20260903183511 34 234 0.0 0.0 0.00 0.00 0.00 67 1014.6
20260903183006 34 243 1.6 3.2 0.00 0.00 0.00 69 1014.7
20260903182504 33 172 1.6 3.2 0.00 0.00 0.00 68 1014.7
20260903182000 33 256 0.0 0.0 0.00 0.00 0.00 68 1014.8
20260903181454 33 199 1.6 1.6 0.00 0.00 0.00 69 1014.6
20260903180953 33 156 1.6 3.2 0.00 0.00 0.00 68 1014.6
20260903180448 35 155 1.6 1.6 0.00 0.00 0.00 67 1014.6
20260903175948 35 149 3.2 3.2 0.00 0.00 0.00 66 1014.9
20260903175442 35 190 3.2 3.2 0.00 0.00 0.00 65 1014.9
20260903174941 33 105 0.0 0.0 0.00 0.00 0.00 66 1014.8
20260903174437 33 105 1.6 1.6 0.00 0.00 0.00 72 1015.1
20260903173936 33 150 4.8 8.0 0.00 0.00 0.00 69 1015.2
20260903173431 32 227 4.8 4.8 0.00 0.00 0.00 71 1015.1
20260903172927 32 162 1.6 1.6 0.00 0.00 0.00 72 1015.1
20260903172422 32 103 3.2 3.2 0.00 0.00 0.00 71 1015.2
20260903171918 32 146 4.8 4.8 0.00 0.00 0.00 70 1015.4
20260903171413 32 139 4.8 9.7 0.00 0.00 0.00 70 1015.3
20260903170912 32 149 3.2 3.2 0.00 0.00 0.00 70 1015.5
20260903170408 32 175 1.6 1.6 0.00 0.00 0.00 73 1015.7
20260903165906 32 151 1.6 3.2 0.00 0.00 0.00 74 1015.4
20260903165401 31 140 3.2 3.2 0.00 0.00 0.00 75 1015.6
20260903164855 31 146 4.8 4.8 0.00 0.00 0.00 75 1015.8
20260903164351 31 157 3.2 3.2 0.00 0.00 0.00 76 1015.6
20260903163850 31 136 1.6 3.2 0.00 0.00 0.00 76 1015.8
20260903163346 32 292 0.0 1.6 0.00 0.00 0.00 75 1015.7
20260903162842 32 155 3.2 3.2 0.00 0.00 0.00 76 1015.7
20260903162339 32 226 3.2 4.8 0.00 0.00 0.00 75 1015.5
20260903161834 32 248 0.0 1.6 0.00 0.00 0.00 76 1015.8
20260903161329 31 125 0.0 1.6 0.00 0.00 0.00 76 1016.0
20260903160825 31 87 4.8 8.0 0.00 0.00 0.00 75 1016.0
20260903160324 31 156 0.0 0.0 0.00 0.00 0.00 75 1016.1
20260903155822 31 179 1.6 1.6 0.00 0.00 0.00 76 1016.0
20260903155318 31 144 3.2 4.8 0.00 0.00 0.00 77 1016.2
20260903154813 31 136 4.8 4.8 0.00 0.00 0.00 77 1016.0
20260903154309 31 145 4.8 4.8 0.00 0.00 0.00 77 1016.2
20260903153805 31 129 4.8 4.8 0.00 0.00 0.00 76 1016.2
20260903153300 30 100 1.6 1.6 0.00 0.00 0.00 77 1016.3
20260903152756 30 80 3.2 3.2 0.00 0.00 0.00 78 1016.5
20260903152252 30 120 1.6 1.6 0.00 0.00 0.00 78 1016.3
20260903151752 30 128 3.2 3.2 0.00 0.00 0.00 77 1016.5
20260903151247 30 138 3.2 4.8 0.00 0.00 0.00 78 1016.5
20260903150748 30 120 1.6 1.6 0.00 0.00 0.00 78 1016.1
20260903150242 30 109 1.6 3.2 0.00 0.00 0.00 78 1016.4
20260903145737 30 131 4.8 4.8 0.00 0.00 0.00 77 1016.4
20260903145232 30 118 0.0 0.0 0.00 0.00 0.00 78 1016.2
20260903144731 30 176 3.2 3.2 0.00 0.00 0.00 80 1016.3
20260903144227 29 162 3.2 4.8 0.00 0.00 0.00 81 1016.2
20260903143723 28 166 1.6 1.6 0.00 0.00 0.00 82 1016.4
20260903143219 28 183 3.2 4.8 0.00 0.00 0.00 81 1016.4
20260903142714 28 114 3.2 3.2 0.00 0.00 0.00 82 1016.2
20260903142211 28 152 4.8 4.8 0.00 0.00 0.00 81 1016.2
20260903141706 28 141 0.0 1.6 0.00 0.00 0.00 82 1016.4
20260903141201 28 144 4.8 8.0 0.00 0.00 0.00 81 1016.3
20260903140657 28 15 1.6 1.6 0.00 0.00 0.00 82 1016.2
20260903140151 27 165 3.2 3.2 0.00 0.00 0.00 83 1016.2
20260903135647 27 154 0.0 1.6 0.00 0.00 0.00 83 1016.1
20260903135142 27 166 3.2 4.8 0.00 0.00 0.00 83 1016.0
20260903134641 27 121 0.0 0.0 0.00 0.00 0.00 83 1015.9
20260903134137 27 138 3.2 4.8 0.00 0.00 0.00 83 1015.9
20260903133635 27 210 1.6 3.2 0.00 0.00 0.00 83 1015.9
20260903133131 27 163 3.2 3.2 0.00 0.00 0.00 83 1016.1
20260903132630 27 102 1.6 3.2 0.00 0.00 0.00 82 1016.0
20260903132125 27 200 1.6 3.2 0.00 0.00 0.00 85 1016.0
20260903131620 27 171 3.2 3.2 0.00 0.00 0.00 84 1016.2
20260903131119 27 42 0.0 1.6 0.00 0.00 0.00 85 1016.3
20260903130616 27 86 1.6 4.8 0.00 0.00 0.00 86 1016.3
20260903130108 27 33 1.6 1.6 0.00 0.00 0.00 87 1016.2
20260903125607 27 25 1.6 1.6 0.00 0.00 0.00 87 1016.3
20260903125057 27 142 1.6 1.6 0.00 0.00 0.00 87 1016.2
20260903124557 26 223 3.2 3.2 0.00 0.00 0.00 88 1016.3
20260903124056 26 177 0.0 1.6 0.00 0.00 0.00 89 1016.4
20260903123556 26 140 1.6 1.6 0.00 0.00 0.00 90 1016.5
20260903123055 26 118 0.0 0.0 0.00 0.00 0.00 90 1016.7
20260903122549 26 176 0.0 0.0 0.00 0.00 0.00 91 1016.4
20260903122049 26 204 0.0 0.0 0.00 0.00 0.00 92 1016.3
20260903121543 25 322 0.0 0.0 0.00 0.00 0.00 93 1016.4
20260903121039 25 172 0.0 0.0 0.00 0.00 0.00 94 1016.5
20260903120537 25 15 0.0 0.0 0.00 0.00 0.00 94 1016.4
20260903120032 25 312 0.0 1.6 0.00 0.00 0.00 95 1016.4
20260903115531 25 346 0.0 0.0 0.00 0.00 0.00 95 1016.4
20260903115026 25 295 0.0 0.0 0.00 0.00 0.00 95 1016.3
20260903114521 25 327 0.0 0.0 0.00 0.00 0.00 95 1016.3
20260903114017 25 335 0.0 0.0 0.00 0.00 0.00 95 1016.1
20260903113512 25 315 0.0 0.0 0.00 0.00 0.00 95 1016.3
20260903113008 25 279 0.0 0.0 0.00 0.00 0.00 95 1016.1
20260903112504 25 286 0.0 0.0 0.00 0.00 0.00 95 1015.9
20260903112003 25 280 0.0 0.0 0.00 0.00 0.00 95 1016.0
20260903111457 25 276 0.0 0.0 0.00 0.00 0.00 95 1015.8
20260903110954 25 337 0.0 0.0 0.00 0.00 0.00 95 1015.9
20260903110449 25 324 0.0 0.0 0.00 0.00 0.00 95 1015.8
20260903105943 25 274 0.0 0.0 0.00 0.00 0.00 95 1015.6
20260903105438 25 342 0.0 0.0 0.00 0.00 0.00 95 1015.7
20260903104938 25 338 0.0 0.0 0.00 0.00 0.00 95 1015.5
20260903104437 25 312 0.0 0.0 0.00 0.00 0.00 95 1015.3
20260903103935 25 338 0.0 0.0 0.00 0.00 0.00 95 1015.2
20260903103430 25 274 0.0 0.0 0.00 0.00 0.00 95 1015.5
20260903102926 25 233 0.0 0.0 0.00 0.00 0.00 96 1015.3
20260903102421 25 335 0.0 0.0 0.00 0.00 0.00 96 1015.3
20260903101920 25 274 0.0 0.0 0.00 0.00 0.00 96 1015.3
20260903101415 25 318 0.0 0.0 0.00 0.00 0.00 96 1015.5
20260903100910 25 297 0.0 0.0 0.00 0.00 0.00 96 1015.3
20260903100405 25 344 0.0 0.0 0.00 0.00 0.00 96 1015.3
20260903095902 25 8 0.0 0.0 0.00 0.00 0.00 96 1015.4
20260903095357 25 242 0.0 0.0 0.00 0.00 0.00 96 1015.2
20260903094852 25 264 0.0 0.0 0.00 0.00 0.00 96 1015.1
20260903094351 24 304 0.0 0.0 0.00 0.00 0.00 96 1015.3
20260903093847 25 10 0.0 0.0 0.00 0.00 0.00 96 1015.2
20260903093343 24 325 1.6 1.6 0.00 0.00 0.00 96 1015.2
20260903092838 24 255 1.6 1.6 0.00 0.00 0.00 96 1015.1
20260903092332 24 23 0.0 0.0 0.00 0.00 0.00 96 1015.0
20260903091831 24 359 0.0 0.0 0.00 0.00 0.00 96 1015.4
20260903091325 24 356 0.0 0.0 0.00 0.00 0.00 96 1015.2
20260903090820 24 336 0.0 0.0 0.00 0.00 0.00 96 1015.2
20260903090321 24 344 0.0 0.0 0.00 0.00 0.00 96 1015.1
20260903085819 24 344 0.0 0.0 0.00 0.00 0.00 96 1014.9
20260903085313 24 345 0.0 0.0 0.00 0.00 0.00 96 1015.1
20260903084812 24 347 0.0 0.0 0.00 0.00 0.00 96 1014.9
20260903084311 24 347 0.0 0.0 0.00 0.00 0.00 96 1015.1
20260903083807 24 347 0.0 0.0 0.00 0.00 0.00 96 1015.0
20260903083302 24 340 0.0 0.0 0.00 0.00 0.00 96 1014.7
20260903082801 24 336 0.0 0.0 0.00 0.00 0.00 96 1015.0
20260903082257 24 347 0.0 0.0 0.00 0.00 0.00 96 1014.9
20260903081756 24 344 0.0 0.0 0.00 0.00 0.00 96 1014.9
20260903081252 24 355 0.0 0.0 0.00 0.00 0.00 96 1014.8
20260903080748 25 352 0.0 0.0 0.00 0.00 0.00 96 1014.9
20260903080246 25 332 0.0 0.0 0.00 0.00 0.00 96 1014.8
20260903075745 25 332 0.0 0.0 0.00 0.00 0.00 96 1015.2
20260903075240 25 283 0.0 0.0 0.00 0.00 0.00 96 1014.9
20260903074739 25 347 0.0 0.0 0.00 0.00 0.00 96 1015.1
20260903074234 25 313 0.0 0.0 0.00 0.00 0.00 96 1015.0
20260903073730 25 351 0.0 0.0 0.00 0.00 0.00 96 1015.0
20260903073225 25 334 0.0 0.0 0.00 0.00 0.00 96 1015.1
20260903072721 25 335 0.0 0.0 0.00 0.00 0.00 96 1014.9
20260903072217 25 341 0.0 0.0 0.00 0.00 0.00 96 1015.2
20260903071713 25 341 0.0 0.0 0.00 0.00 0.00 96 1014.8
20260903071209 25 341 0.0 0.0 0.00 0.00 0.00 96 1015.0
20260903070708 25 341 0.0 0.0 0.00 0.00 0.00 96 1015.3
20260903070204 25 349 0.0 0.0 0.00 0.00 0.00 96 1015.2
20260903065659 25 337 0.0 0.0 0.00 0.00 0.00 96 1015.2
20260903065153 25 340 0.0 0.0 0.00 0.00 0.00 96 1015.0
20260903064652 25 353 0.0 0.0 0.00 0.00 0.00 96 1015.1
20260903064148 25 341 0.0 0.0 0.00 0.00 0.00 96 1015.1
20260903063643 25 0 0.0 0.0 0.00 0.00 0.00 96 1015.1
20260903063138 25 324 0.0 0.0 0.00 0.00 0.00 96 1015.0
20260903062634 25 2 0.0 0.0 0.00 0.00 0.00 96 1015.1
20260903062129 25 357 0.0 0.0 0.00 0.00 0.00 96 1015.3
20260903061624 25 358 0.0 0.0 0.00 0.00 0.00 96 1015.1
20260903061123 25 22 0.0 0.0 0.00 0.00 0.00 96 1015.1
20260903060619 25 26 0.0 0.0 0.00 0.00 0.00 96 1015.2
20260903060114 25 3 0.0 0.0 0.00 0.00 0.00 96 1014.9
20260903055611 25 315 0.0 0.0 0.00 0.00 0.00 96 1015.3
20260903055110 25 25 0.0 0.0 0.00 0.00 0.00 96 1015.2
20260903054605 25 25 0.0 0.0 0.00 0.00 0.00 96 1015.1
20260903054101 25 25 0.0 0.0 0.00 0.00 0.00 96 1015.3
20260903053556 25 25 0.0 0.0 0.00 0.00 0.00 96 1015.3
20260903053052 25 25 0.0 0.0 0.00 0.00 0.00 96 1015.4
20260903052548 25 25 0.0 0.0 0.00 0.00 0.00 96 1015.0
20260903052043 25 27 0.0 0.0 0.00 0.00 0.00 96 1015.4
20260903051543 25 31 0.0 0.0 0.00 0.00 0.00 96 1015.3
20260903051039 25 31 0.0 0.0 0.00 0.00 0.00 96 1015.5
20260903050538 25 31 0.0 0.0 0.00 0.00 0.00 96 1015.5
20260903050033 25 31 0.0 0.0 0.00 0.00 0.00 96 1015.3
20260903045532 26 31 0.0 0.0 0.00 0.00 0.00 96 1015.4
20260903045030 26 3 0.0 0.0 0.00 0.00 0.00 96 1015.4
20260903044525 26 3 0.0 0.0 0.00 0.00 0.00 96 1015.5
20260903044020 26 1 0.0 0.0 0.00 0.00 0.00 96 1015.7
20260903043516 26 1 0.0 0.0 0.00 0.00 0.00 96 1015.5
20260903043015 26 0 0.0 0.0 0.00 0.00 0.00 96 1015.7
20260903042510 26 12 0.0 0.0 0.00 0.00 0.00 96 1015.5
20260903042006 26 12 0.0 0.0 0.00 0.00 0.00 95 1015.5
20260903041503 26 12 0.0 0.0 0.00 0.00 0.00 95 1015.6
20260903040957 26 12 0.0 0.0 0.00 0.00 0.00 95 1015.4
20260903040456 26 12 0.0 0.0 0.00 0.00 0.00 95 1015.5
20260903035953 26 12 0.0 0.0 0.00 0.00 0.00 95 1015.4
20260903035448 26 12 0.0 0.0 0.00 0.00 0.00 95 1015.4
20260903034943 26 12 0.0 0.0 0.00 0.00 0.00 95 1015.2
20260903034438 26 12 0.0 0.0 0.00 0.00 0.00 95 1015.4
20260903033933 26 12 0.0 0.0 0.00 0.00 0.00 95 1015.4
20260903033428 26 12 0.0 0.0 0.00 0.00 0.00 95 1015.6
20260903032923 26 12 0.0 0.0 0.00 0.00 0.00 95 1015.6
20260903032419 26 22 0.0 0.0 0.00 0.00 0.00 95 1015.2
20260903031914 26 21 0.0 0.0 0.00 0.00 0.00 95 1015.3
20260903031413 26 21 0.0 0.0 0.00 0.00 0.00 95 1015.1
20260903030909 26 21 0.0 0.0 0.00 0.00 0.00 95 1015.3
20260903030405 26 30 0.0 0.0 0.00 0.00 0.00 95 1015.4
20260903025900 26 4 0.0 0.0 0.00 0.00 0.00 95 1015.4
20260903025355 26 4 0.0 0.0 0.00 0.00 0.00 95 1015.3
20260903024855 26 4 0.0 0.0 0.00 0.00 0.00 95 1015.4
20260903024350 26 357 0.0 0.0 0.00 0.00 0.00 95 1015.6
20260903023845 26 356 0.0 0.0 0.00 0.00 0.00 94 1015.5
20260903023341 26 24 0.0 0.0 0.00 0.00 0.00 94 1015.6
20260903022836 26 24 0.0 0.0 0.00 0.00 0.00 94 1015.6
20260903022335 26 24 0.0 0.0 0.00 0.00 0.00 94 1015.9
20260903021834 26 5 0.0 0.0 0.00 0.00 0.00 94 1015.8
20260903021330 26 335 0.0 0.0 0.00 0.00 0.00 94 1016.1
20260903020829 26 13 0.0 0.0 0.00 0.00 0.00 94 1016.1
20260903020324 26 17 0.0 0.0 0.00 0.00 0.00 94 1016.0
20260903015819 26 17 0.0 0.0 0.00 0.00 0.00 94 1016.0
20260903015315 26 17 0.0 0.0 0.00 0.00 0.00 93 1016.0
20260903014810 26 17 0.0 0.0 0.00 0.00 0.00 93 1015.8
20260903014310 27 16 0.0 0.0 0.00 0.00 0.00 93 1015.7
20260903013805 27 70 0.0 0.0 0.00 0.00 0.00 93 1015.9
20260903013304 27 352 0.0 0.0 0.00 0.00 0.00 93 1015.7
20260903012803 27 349 0.0 0.0 0.00 0.00 0.00 93 1015.9
20260903012258 27 48 0.0 0.0 0.00 0.00 0.00 92 1015.7
20260903011757 27 25 0.0 0.0 0.00 0.00 0.00 92 1015.8
20260903011256 27 21 0.0 0.0 0.00 0.00 0.00 92 1015.8
20260903010752 27 21 0.0 0.0 0.00 0.00 0.00 92 1015.8
20260903010247 27 325 0.0 0.0 0.00 0.00 0.00 92 1015.3
20260903005746 27 100 0.0 0.0 0.00 0.00 0.00 92 1014.9
20260903005241 27 288 0.0 0.0 0.00 0.00 0.00 91 1014.9
20260903004737 27 14 0.0 0.0 0.00 0.00 0.00 91 1014.8
20260903004232 27 14 0.0 0.0 0.00 0.00 0.00 91 1014.6
20260903003727 27 23 0.0 0.0 0.00 0.00 0.00 90 1014.7
20260903003222 27 9 0.0 0.0 0.00 0.00 0.00 90 1014.9
20260903002717 27 303 0.0 0.0 0.00 0.00 0.00 90 1014.9
20260903002211 27 18 0.0 0.0 0.00 0.00 0.00 89 1015.0
20260903001706 28 43 0.0 0.0 0.00 0.00 0.00 89 1014.9
20260903001201 28 80 0.0 0.0 0.00 0.00 0.00 88 1015.4
20260903000656 28 42 0.0 0.0 0.00 0.00 0.00 89 1015.4